OBJECT AV, 67291

Orbit data source: Space-Track

You're viewing an Uncataloged Satellite

Recently launched and/or uncataloged satellites may have evolving metadata. Metadata may include but not limited to: Owner, Maufacturer, Bus, Motor, and Mission.

OBJECT AV, 67291 is a satellite in SSO that was launched on Sun, 28 Dec 2025 UTC via a SOYUZ-2-1B launch vehicle from the Vostochny Cosmodrome (VOSTO). Unknown objects in Earth's orbit typically refer to objects detected orbiting the Earth but have not yet been identified or cataloged. These objects could be anything from previously untracked satellites, spent rocket stages, debris from satellite collisions, or even natural meteoroids temporarily captured by Earth's gravity.

Loading next visibility...
Identifier
67291, 2025-313AV
Orbit
SSO
Country
Flag of TBDTBD
Related business
Flag of KWOrbital Space (KW)
Manufacturer
Orbital Space
Mission
Operational Commercial Technology
Bus & Motor
CUBESAT 1U, Unknown motor
Mass
1 kg wet, 1 kg dry
Launch date (UTC)
2025-12-28 (6 months ago)
Launch vehicle
SOYUZ-2-1B
Launch site
Vostochny Cosmodrome (VOSTO)
Object type
Unknown
Shape & HBR
Box, 0.2 m
Radar Cross Section
0.100 m², Medium (>0.1 m² and < 1m²)

Expand to show TLE details & history
Last TLE update: 1 day ago

TLE from 1 day ago
0 OBJECT AV
1 67291U 25313AV  26170.70536872  .00011199  00000-0  43324-3 0  9993
2 67291  97.3925 245.8896 0007987 353.2594   6.8536 15.26346044 26377
Epoch: 2026-06-19T16:55Z
TLE epoch observation values (Epoch: 2026-06-19T16:55:43.857Z)
Latitude
-0°
Longitude
84.02635°
Altitude
484.401 km
Speed
7.626 km/s
True Right ascension
16h 23m 33s
True Declination
0° 00' 00"
Sunlit
Object was in full shadow at epoch
Visualization orbit readout
Latitude
Unknown
Longitude
Unknown
Altitude
Unknown
Speed
Unknown
Apparent Right ascension
Unknown
Apparent Declination
Unknown
Sunlit
N/A
Visualization observer readout
Local Sidereal Time
07:20:55
Azimuth
Unknown
Elevation
Unknown
Doppler factor
Unknown
Orbital elements
Apogee altitude
489.184 km
Perigee altitude
478.223 km
Semi-major axis
6,861.84 km
Eccentricity
0.0008
Inclination
97.3925°
RAAN
245.8896°
Arg. of periapsis
353.2594°
True anomaly
6.86453°
Mean anomaly
6.8536°
Eccentric anomaly
6.85907°
Mean motion
3.81841 °/min
Orbital period
94.28 mins
BSTAR
0.00043324
Loading maneuver chart data...
Computing Atmospheric mass density...
Loading historical data...
Loading historical data...
Loading historical data...
Loading historical data...
Loading historical data...
Loading historical data...
Loading historical data...

Documentation

Showing up to 5 results
|